CST,Max TemperatureF,Mean TemperatureF,Min TemperatureF,Max Dew PointF,MeanDew PointF,Min DewpointF,Max Humidity, Mean Humidity, Min Humidity, Max Sea Level PressureIn, Mean Sea Level PressureIn, Min Sea Level PressureIn, Max VisibilityMiles, Mean VisibilityMiles, Min VisibilityMiles, Max Wind SpeedMPH, Mean Wind SpeedMPH, Max Gust SpeedMPH,PrecipitationIn, CloudCover, Events, WindDirDegrees
2012-11-1,54,46,37,41,38,34,96,80,63,30.10,30.01,29.92,10,6,2,18,7,22,0.00,4,,29
2012-11-2,46,36,25,38,35,26,100,85,70,30.19,29.99,29.89,10,5,0,22,8,26,0.00,5,Fog,45
2012-11-3,56,38,20,37,29,19,100,74,47,30.26,30.22,30.16,10,8,2,13,3,15,0.00,2,,354
2012-11-4,51,39,26,39,32,25,93,76,59,30.19,30.10,30.05,10,7,0,15,5,20,T,4,Fog-Rain,320
2012-11-5,46,42,37,38,34,32,92,79,65,30.25,30.16,30.02,10,10,9,22,10,29,0.00,6,,341
2012-11-6,59,43,26,41,26,17,82,52,21,30.18,30.11,30.00,10,10,10,35,14,44,T,1,Rain,313
2012-11-7,60,40,20,28,25,17,91,59,27,30.21,30.08,29.91,10,10,10,20,8,24,0.00,0,,169
2012-11-8,62,48,33,34,30,26,89,61,32,29.96,29.90,29.85,10,10,6,17,9,22,0.00,0,,358
2012-11-9,48,40,32,41,36,30,100,83,66,29.91,29.79,29.61,8,4,0,15,8,18,0.00,7,Fog,19
2012-11-10,53,39,24,41,34,19,100,82,63,29.84,29.61,29.49,10,6,0,32,11,44,0.05,7,Fog-Rain-Snow-Thunderstorm,322
2012-11-11,32,23,13,19,11,7,81,60,39,30.26,30.05,29.78,10,10,10,30,17,38,0.00,2,,314
2012-11-12,43,28,12,12,10,7,74,49,24,30.40,30.32,30.17,10,10,10,25,10,31,0.00,0,,274
2012-11-13,56,34,11,21,14,7,88,53,18,30.39,30.31,30.21,10,10,7,12,3,15,0.00,1,,286
2012-11-14,59,37,14,28,21,12,92,60,28,30.34,30.25,30.16,10,10,10,15,4,20,0.00,0,,218
2012-11-15,56,38,20,30,25,16,88,59,30,30.50,30.35,30.17,10,10,10,16,4,21,0.00,1,,353
2012-11-16,57,36,14,33,24,10,96,66,35,30.49,30.36,30.20,10,10,8,23,8,29,0.00,0,,174
2012-11-17,57,43,29,34,31,26,82,61,40,30.19,30.12,30.05,10,10,10,21,8,26,0.00,0,,171
2012-11-18,59,42,25,35,31,27,96,68,40,30.08,30.02,29.95,10,9,2,18,6,23,0.00,0,,159
2012-11-19,62,44,25,34,29,22,100,66,32,30.22,30.10,29.97,10,9,5,24,7,28,0.00,0,,313
2012-11-20,71,46,20,31,27,19,92,57,22,30.27,30.16,30.05,10,10,9,21,8,25,0.00,0,,213
2012-11-21,67,49,30,32,28,21,76,49,22,30.03,29.91,29.76,10,10,10,24,8,29,0.00,0,,175
2012-11-22,55,41,26,37,25,13,75,52,28,30.42,30.04,29.75,10,10,10,37,15,45,0.00,0,,320
2012-11-23,38,26,14,11,10,8,67,50,32,30.61,30.51,30.40,10,10,10,30,11,37,0.00,0,,312
2012-11-24,51,33,14,21,17,11,74,52,29,30.35,30.04,29.86,10,10,10,15,6,18,0.00,0,,157
2012-11-25,46,37,28,29,24,21,82,61,40,30.20,30.05,29.95,10,10,10,17,6,23,0.00,4,,2
2012-11-26,32,20,7,25,18,5,96,83,69,30.51,30.38,30.15,10,5,0,17,8,22,0.02,6,Fog-Snow,358
2012-11-27,40,25,10,28,19,7,92,76,59,30.46,30.32,30.21,10,9,3,14,5,18,0.00,0,,254
2012-11-28,48,28,7,29,20,6,92,67,42,30.40,30.26,30.08,10,10,10,18,5,22,0.00,0,,194
2012-11-29,59,37,14,31,24,15,92,61,30,30.07,30.00,29.89,10,10,9,16,4,20,0.00,0,,253
2012-11-30,50,37,23,28,26,20,88,65,42,30.13,30.04,29.92,10,10,7,12,4,15,0.00,0,,159